GFSNGP_500_spd_006.txt.gz
Wind_Speed
47 46 47 52 55 57 58 53 54 41 36 26 24 23 22 19 23 23 24 24 20 14 12 11 14 16 16 19 21 22 24 28 30 34 38 37 38 37 34 41 41 42 38 40
35 40 44 51 53 53 58 54 48 39 30 24 22 24 26 23 26 24 20 18 15 14 14 17 20 20 18 24 26 27 25 29 34 40 37 48 34 36 31 39 40 41 36 44
30 30 40 52 51 52 48 49 44 37 22 20 22 27 27 26 25 24 20 15 12 14 18 25 27 28 28 30 32 36 34 31 36 39 40 36 52 31 26 33 41 42 42 45
33 31 40 45 47 49 46 46 41 39 30 22 25 25 26 28 21 19 16 17 19 21 24 29 32 34 32 34 36 38 37 35 40 39 46 44 37 31 44 31 34 40 40 43
40 38 35 38 46 53 51 43 41 40 41 40 36 35 35 34 25 20 20 22 25 30 35 35 35 38 38 38 40 41 40 40 41 41 42 43 44 44 39 33 37 41 34 44
42 40 37 38 45 53 45 41 39 39 42 45 46 42 30 25 24 27 29 32 37 40 47 33 40 43 45 45 46 51 46 43 49 44 43 38 42 44 44 43 46 42 43 44
39 42 39 37 39 33 44 48 30 35 41 42 49 48 41 31 27 26 30 37 41 39 42 45 48 47 50 49 53 59 52 44 40 40 40 42 40 40 49 48 46 47 34 40
27 39 38 36 36 39 38 40 37 38 37 36 41 43 42 36 36 34 34 38 43 46 49 50 52 55 49 50 52 56 44 43 47 46 46 45 43 42 45 44 47 45 35 38
41 42 35 33 32 35 38 40 42 39 34 31 29 36 32 34 31 32 36 39 43 48 51 59 45 49 49 44 57 57 47 48 52 48 37 34 43 42 43 45 30 36 36 44
38 36 42 41 39 38 34 37 39 40 42 39 39 36 36 33 32 30 34 42 51 47 58 46 51 49 50 51 51 55 50 47 44 43 32 33 36 38 38 41 30 35 46 53
38 35 38 46 45 43 44 40 39 40 34 32 35 36 35 36 36 38 42 48 51 57 50 51 51 45 49 57 55 49 50 41 33 33 35 38 38 37 48 43 53 45 42 43
35 38 38 43 31 42 42 44 42 39 41 42 45 39 37 41 45 46 52 51 43 43 52 55 47 39 41 38 39 43 44 43 42 36 38 42 44 42 44 48 50 46 41 42
29 40 38 46 36 33 38 44 39 39 39 41 40 44 44 43 52 45 35 34 33 33 35 37 40 43 42 43 47 46 45 47 44 44 42 46 49 46 46 46 45 42 38 41
22 27 28 34 40 38 36 44 49 47 38 33 34 48 35 36 30 33 35 36 33 32 36 43 46 44 43 44 46 49 47 49 50 50 47 47 46 46 44 42 42 42 44 43
27 27 24 26 29 26 26 33 31 27 32 29 28 29 31 31 29 32 32 37 35 35 37 39 42 46 47 47 47 48 45 47 47 49 47 44 45 44 44 44 44 43 39 40
19 20 22 19 18 22 21 21 19 22 25 26 24 27 31 31 31 32 32 33 36 40 38 39 42 43 44 45 45 45 43 45 37 44 44 40 40 42 45 45 43 41 43 45
20 19 18 18 20 21 21 24 23 24 28 31 29 33 34 35 34 35 35 37 39 40 41 41 42 41 43 43 42 42 39 38 37 35 38 41 43 43 43 42 43 44 43 42
20 21 22 23 25 25 26 26 26 26 28 30 31 32 32 34 33 35 36 36 37 39 41 44 45 46 35 41 40 38 32 33 39 40 38 38 40 42 40 37 36 38 36 34
28 30 29 27 27 26 25 25 26 28 29 28 29 30 28 28 32 34 36 38 41 43 44 46 41 31 37 31 39 34 40 42 37 35 36 37 36 35 33 30 29 29 29 31
31 31 29 27 26 27 30 29 24 25 26 26 27 30 31 32 36 38 38 37 33 32 33 35 37 38 41 39 38 38 36 36 32 30 27 28 25 25 26 28 29 31 32 33
26 25 25 26 26 24 24 24 25 25 27 29 31 33 33 31 32 30 28 29 31 31 31 26 27 31 31 32 33 38 32 25 26 24 19 19 20 22 26 30 31 29 27 26
23 23 23 22 23 23 24 26 28 30 32 33 29 26 25 23 24 25 26 26 26 24 23 23 22 24 22 23 24 24 24 23 23 21 23 23 25 26 26 24 27 27 26 25
17 18 19 20 23 25 27 28 28 28 26 22 20 22 23 24 24 24 23 21 20 20 20 20 20 22 21 19 16 16 17 17 19 23 25 24 22 21 24 26 28 27 27 26
15 17 21 23 23 25 25 24 21 18 17 18 20 22 22 23 23 23 22 21 20 20 19 19 19 18 19 20 22 21 20 20 22 24 20 20 22 24 25 26 26 27 27 26
17 19 21 21 20 18 15 15 15 17 19 21 21 21 22 23 24 25 24 24 24 25 24 24 24 24 24 24 22 21 21 22 20 21 23 23 26 27 27 26 26 26 26 27
15 15 16 15 16 16 17 21 23 25 25 24 24 23 22 23 22 22 21 22 22 22 22 22 22 21 21 22 23 24 25 26 26 27 27 28 29 31 31 31 30 30 31 29
16 14 15 16 18 18 19 20 22 24 26 27 26 23 23 23 23 23 21 19 18 20 21 22 24 26 26 27 28 29 30 31 32 33 34 35 36 36 36 35 33 32 33 34

GFSNGP_500_spd_009.txt.gz
Wind_Speed
50 53 57 61 63 68 71 69 69 59 54 40 39 39 33 28 24 28 29 29 26 28 26 21 17 14 14 12 14 18 20 23 25 28 31 37 41 45 48 42 47 36 23 32
43 44 42 56 60 59 64 64 65 55 55 43 39 28 27 24 20 23 29 31 26 28 26 24 22 20 15 15 20 19 21 24 27 30 35 39 44 42 46 50 60 26 33 30
43 35 40 48 51 56 57 60 61 56 47 43 31 28 27 22 26 24 27 24 22 21 24 21 20 21 22 24 22 23 25 24 29 33 39 42 43 44 44 44 49 44 46 40
37 38 44 44 48 53 53 56 57 55 47 36 28 24 29 24 28 28 26 25 22 23 21 23 27 31 25 26 28 29 31 34 37 38 44 47 51 48 44 47 47 38 35 29
41 38 42 45 43 49 53 54 54 50 45 34 32 31 29 26 29 30 27 25 24 28 33 37 31 30 26 32 31 34 36 38 39 40 46 46 51 52 49 42 39 42 40 35
48 33 42 42 34 37 42 49 44 43 40 33 38 37 36 32 33 32 32 32 32 34 37 35 34 35 37 32 38 42 44 44 47 49 45 43 47 47 49 47 50 54 46 34
49 34 38 36 27 29 37 42 40 38 38 38 35 38 39 36 41 38 32 35 35 39 39 36 38 39 41 44 47 48 52 48 54 48 45 40 45 50 53 52 44 48 40 36
40 38 39 42 29 29 32 33 35 41 37 36 35 38 40 44 43 40 42 37 29 33 37 39 41 43 46 48 51 53 48 50 51 48 44 45 47 49 50 49 43 37 39 39
31 47 44 39 33 30 29 30 37 33 42 32 33 34 37 38 38 39 40 44 35 34 36 41 42 45 51 55 55 54 58 47 50 55 55 50 51 50 42 31 34 32 34 39
37 16 44 34 36 37 35 35 38 33 36 43 48 39 38 36 42 41 42 41 36 40 38 37 43 48 56 64 52 46 47 47 52 57 57 47 46 38 35 40 36 39 36 53
30 29 23 35 39 39 41 40 40 39 38 40 46 39 39 40 40 39 40 43 39 38 40 41 41 48 49 56 52 55 50 52 54 45 41 37 37 42 42 38 44 44 36 43
18 35 25 34 35 37 39 42 44 44 41 40 40 35 39 40 42 41 41 42 42 40 41 45 52 50 45 43 48 50 51 53 49 48 46 45 42 42 40 44 47 43 43 43
21 22 37 30 41 39 42 44 45 44 42 37 38 39 38 38 34 38 40 44 41 43 47 49 42 44 45 38 41 44 45 44 45 46 47 49 47 47 45 42 43 43 39 35
24 21 24 29 36 42 41 55 46 46 46 43 41 43 42 46 45 41 43 44 41 38 36 39 43 46 43 41 42 43 46 49 52 51 48 46 45 45 43 41 38 37 33 35
23 22 27 25 25 32 37 40 41 41 38 36 42 44 42 41 36 37 37 31 35 41 45 47 50 48 44 45 45 45 46 44 44 45 46 44 44 41 41 38 37 36 39 40
27 31 28 24 23 26 28 26 20 34 24 18 26 31 32 35 31 39 41 40 37 34 38 42 43 45 44 43 43 42 42 42 42 42 39 41 42 39 35 36 39 40 41 40
31 26 26 31 14 19 16 12 11 11 12 15 22 22 25 28 29 32 34 34 36 37 41 43 45 45 44 42 42 43 43 44 37 38 39 41 37 36 37 39 40 40 35 29
26 20 6 5 5 3 7 8 13 15 17 19 22 27 32 29 32 35 36 39 38 37 37 37 38 39 40 41 42 42 36 35 35 33 34 35 36 40 39 37 36 29 23 22
12 10 9 10 12 13 16 18 19 20 21 24 26 28 32 36 37 38 38 34 34 36 37 39 39 38 37 35 34 35 36 36 38 40 42 43 39 34 31 29 25 20 22 24
18 16 16 18 19 18 20 22 23 24 26 25 25 25 25 27 29 31 33 34 35 35 36 36 34 33 34 34 35 36 37 38 35 32 34 31 26 25 24 21 20 23 25 24
18 20 21 22 23 22 22 23 24 23 23 23 24 25 27 29 31 30 32 33 33 31 31 30 30 30 28 29 29 28 28 29 30 29 24 25 22 20 22 23 24 24 21 22
19 20 21 21 23 25 23 22 21 22 23 24 26 27 27 29 30 29 28 27 26 26 24 24 24 22 20 20 24 24 23 23 24 23 22 22 21 23 24 22 20 21 22 23
20 19 18 18 19 19 20 21 21 22 23 25 26 26 26 25 24 23 23 22 21 21 21 20 20 20 19 19 19 19 18 17 19 22 23 23 23 22 20 20 23 23 24 24
16 15 16 17 18 18 19 20 21 21 21 22 20 20 21 21 20 20 20 20 21 22 21 22 22 23 22 22 22 22 22 23 23 23 23 22 21 21 23 23 24 25 26 25
13 13 14 15 17 18 18 18 18 17 15 15 16 18 20 21 21 21 22 23 23 22 21 22 22 23 23 24 24 24 24 23 23 23 23 23 24 26 26 26 27 28 29 30
14 14 16 17 17 14 14 15 15 16 17 18 19 21 22 22 22 22 22 21 21 21 20 20 19 19 19 20 21 22 22 23 23 24 26 26 29 31 31 32 32 32 32 32
17 19 20 19 18 17 16 17 19 20 21 22 23 22 22 22 22 24 24 24 25 24 22 22 24 25 25 26 26 27 26 26 26 27 28 29 30 31 31 32 32 31 31 31

GFSNGP_500_spd_015.txt.gz
Wind_Speed
41 32 26 31 34 38 47 47 52 47 46 43 39 38 34 28 34 33 26 34 29 33 35 36 29 26 23 21 23 22 18 20 19 18 17 17 20 24 29 32 35 39 43 46
39 30 34 32 32 36 37 45 50 47 50 43 44 37 34 41 46 41 36 26 31 33 33 34 27 28 26 23 24 27 22 22 21 16 14 18 22 24 28 35 39 43 47 48
47 36 31 34 38 37 38 39 40 48 56 44 45 46 45 46 41 39 34 37 34 31 31 32 29 31 31 30 29 28 24 20 22 22 18 20 27 30 33 39 43 42 46 46
38 33 38 39 30 33 37 41 40 40 39 43 56 59 51 48 40 36 35 36 37 32 32 35 35 35 34 36 32 27 24 22 22 24 24 25 29 33 38 41 45 47 51 51
37 38 37 39 33 40 36 35 34 40 37 41 41 42 51 58 58 58 47 38 36 36 34 35 38 37 37 39 35 27 21 19 21 23 28 30 33 36 41 45 49 52 53 51
37 42 40 32 46 28 31 41 38 40 43 36 37 41 45 41 46 53 47 41 49 39 34 37 38 35 35 37 35 31 27 25 25 26 31 34 37 42 44 51 51 49 49 58
45 39 35 44 44 44 40 34 30 32 38 39 37 41 31 27 38 50 39 44 49 43 36 36 39 38 34 36 35 34 33 31 33 33 35 37 38 43 51 58 56 58 62 55
41 42 40 42 43 45 37 41 31 29 29 32 36 34 39 45 49 40 46 50 50 46 38 36 36 30 34 35 37 41 40 36 37 39 42 43 44 47 50 57 60 64 59 53
36 38 48 47 45 40 30 32 28 28 32 28 30 44 49 48 42 37 45 48 50 47 41 39 35 32 33 38 41 45 44 41 39 44 43 45 47 49 51 58 61 62 54 49
49 48 49 45 47 38 34 32 27 31 37 33 34 33 35 33 37 41 48 49 49 47 42 41 39 37 36 39 43 44 49 45 42 46 44 49 52 55 57 54 56 50 47 47
53 55 52 49 42 32 30 29 30 36 39 37 34 36 36 38 38 42 48 48 49 42 42 42 42 41 44 46 42 43 44 44 47 46 51 51 54 55 59 55 53 51 51 50
61 58 48 41 37 30 29 26 31 37 36 34 36 37 37 37 35 35 39 42 43 43 42 42 45 47 46 48 44 45 44 42 50 54 52 53 56 56 52 52 52 53 50 50
34 25 31 36 34 30 28 33 27 42 36 29 31 33 39 40 41 39 39 41 43 44 45 47 49 48 51 46 46 48 46 51 53 55 56 59 57 52 52 55 52 49 47 47
30 35 34 32 30 33 35 35 32 44 43 41 40 43 43 39 38 42 45 50 53 54 50 42 44 46 43 42 46 47 51 51 54 53 51 53 55 54 54 50 47 47 46 47
29 28 29 32 34 33 32 23 35 46 45 48 48 52 46 44 44 41 45 47 44 50 45 42 47 53 56 54 47 49 49 50 52 54 55 55 53 52 48 47 46 46 48 44
28 29 31 36 30 29 34 38 39 47 43 45 49 45 37 41 45 46 46 46 49 44 39 44 40 41 38 44 48 49 53 50 49 52 52 51 50 48 45 46 47 44 39 38
27 26 23 31 36 32 47 50 38 46 47 49 46 43 44 45 47 48 51 51 47 46 43 45 46 47 49 50 49 48 48 49 49 51 51 44 44 44 45 45 43 41 39 35
24 26 19 10 17 32 30 26 42 28 37 55 52 53 57 54 52 54 62 54 58 57 55 50 48 47 47 49 45 45 48 47 49 47 43 42 43 43 41 41 41 43 42 34
28 27 21 16 22 23 27 26 25 26 21 25 30 37 40 43 37 43 43 34 29 25 37 47 39 38 40 44 45 44 45 42 42 43 44 41 40 39 39 39 38 33 32 30
25 25 20 23 27 21 22 25 29 24 21 19 19 19 22 25 23 29 29 29 31 31 32 36 39 41 43 45 39 39 41 42 42 42 39 36 37 35 34 31 31 30 24 21
22 24 25 21 18 14 11 13 15 14 13 15 19 21 23 23 26 29 30 28 30 33 35 36 36 35 37 37 38 38 41 41 37 35 33 33 34 31 30 28 27 27 24 24
19 22 21 18 15 13 10 10 14 17 18 20 22 25 25 26 28 28 30 30 31 32 34 34 34 36 37 37 37 36 37 34 33 32 30 29 30 31 31 30 27 26 25 24
9 13 18 13 8 10 13 17 17 19 21 21 23 24 23 23 26 27 27 27 29 31 32 33 33 32 33 33 32 34 32 30 29 29 30 30 30 30 29 26 27 28 26 22
4 5 6 9 13 16 17 18 19 20 20 20 20 18 21 22 24 25 26 26 27 28 26 28 28 28 29 29 30 30 30 30 31 33 33 31 30 30 29 30 29 26 22 22
6 8 10 11 11 12 12 14 16 17 20 21 23 24 25 27 29 26 28 25 26 26 27 27 28 29 29 30 30 32 34 35 35 33 33 32 32 32 30 27 24 24 25 27
7 9 9 10 12 14 14 16 20 21 23 23 24 26 27 27 27 27 28 28 29 30 30 30 31 32 32 32 33 34 35 35 32 31 31 31 30 29 29 28 27 28 29 30
12 14 15 16 17 19 20 22 23 23 24 25 26 26 27 27 27 29 29 31 31 33 33 36 37 36 34 34 34 33 33 32 30 30 30 29 29 30 31 32 32 32 31 32

GFSNGP_500_spd_021.txt.gz
Wind_Speed
58 48 51 52 43 43 46 45 48 39 46 41 48 49 40 37 52 28 33 35 39 39 40 34 25 24 23 22 21 20 16 11 10 10 8 7 12 13 10 9 11 17 17 18
56 55 48 55 50 46 43 39 42 41 42 46 43 38 31 44 41 36 33 37 37 40 46 37 36 36 35 25 24 25 22 16 16 14 11 10 14 15 15 15 17 18 20 22
66 59 50 49 61 52 41 38 36 42 39 37 53 49 34 25 32 42 37 40 44 39 39 40 41 41 36 33 27 28 28 25 19 17 16 15 17 15 15 18 20 17 20 24
68 62 59 62 54 49 44 40 40 37 34 35 42 54 49 44 44 49 41 42 39 43 42 45 46 48 46 40 31 29 29 29 26 20 18 19 20 18 17 15 16 17 20 25
58 70 65 61 54 50 46 44 37 36 32 31 41 54 62 53 51 56 51 44 46 48 37 43 40 43 41 43 36 32 30 33 31 23 20 24 21 21 20 17 17 20 23 28
53 66 73 67 54 48 48 47 44 46 42 41 42 42 52 65 63 56 50 54 57 51 41 46 43 42 46 46 41 39 33 34 32 30 24 28 26 23 23 23 22 23 27 32
47 59 65 66 58 41 45 52 51 55 52 50 48 46 45 47 69 71 64 57 60 56 60 56 45 44 46 42 42 37 36 36 37 36 29 27 29 32 28 28 28 27 31 35
36 45 56 55 55 51 49 54 53 49 50 53 51 51 52 47 41 49 76 74 69 61 53 51 55 55 41 39 37 39 37 38 39 35 29 26 22 24 30 30 37 37 33 38
44 42 47 47 48 57 62 58 59 59 54 50 51 49 47 47 44 44 48 62 73 80 68 57 59 69 62 56 47 41 40 40 39 34 30 26 22 30 30 34 40 40 32 39
50 60 58 56 58 57 60 56 58 50 45 41 39 39 46 46 50 50 53 52 55 60 69 71 69 57 60 63 57 46 45 43 41 33 34 33 31 32 34 41 45 41 44 43
51 53 47 43 59 55 52 50 50 51 40 40 43 44 47 50 50 43 44 55 58 56 54 52 50 59 64 67 63 53 45 44 41 37 38 37 37 37 43 41 38 41 42 49
47 52 23 55 44 50 61 47 61 54 49 39 38 42 46 44 46 41 49 44 47 58 54 50 47 49 46 49 56 49 47 47 46 43 40 41 45 42 44 45 39 46 49 50
60 59 56 47 57 54 57 50 48 45 45 46 44 39 38 41 41 35 45 46 56 37 48 55 54 51 50 47 51 49 49 50 44 40 42 44 46 46 49 46 45 49 49 50
62 68 67 64 67 56 52 53 44 35 37 41 38 35 36 35 37 41 35 46 26 30 43 46 50 48 43 43 47 50 58 52 49 41 46 47 50 48 55 49 47 50 47 50
51 62 38 45 34 38 23 44 44 35 33 34 34 39 35 32 29 32 32 29 22 31 37 37 41 46 42 43 47 46 49 45 44 48 50 49 51 58 63 56 53 47 52 53
37 55 52 37 31 21 38 39 43 34 34 35 35 37 35 34 26 23 21 20 25 30 30 33 36 41 43 45 46 48 48 51 57 55 50 42 46 49 61 62 40 43 50 44
18 15 16 19 38 48 47 43 35 32 37 33 34 35 32 29 33 30 28 23 25 27 30 29 34 40 42 48 50 48 50 58 55 55 45 50 56 48 39 38 43 45 40 37
15 14 18 14 12 14 18 21 25 28 30 28 26 29 27 23 24 29 22 21 24 26 30 34 37 40 42 46 46 46 56 54 43 47 49 44 46 49 46 45 41 41 40 40
10 11 13 12 20 12 15 23 26 24 22 13 19 24 30 23 21 25 26 29 32 34 37 39 40 40 47 46 46 44 41 44 43 40 51 60 62 49 37 37 40 38 38 36
9 9 14 8 8 9 10 11 13 14 25 26 29 28 26 40 32 30 32 36 35 42 50 40 39 51 46 45 46 47 50 46 51 44 52 45 25 36 39 36 36 34 34 33
9 6 5 6 10 11 8 7 4 5 11 17 16 19 18 22 35 44 35 49 47 46 49 45 44 47 55 35 48 39 32 30 25 21 26 26 32 35 35 35 37 34 33 31
7 7 11 14 12 12 11 12 13 12 15 18 22 25 21 20 23 20 19 17 18 21 26 26 24 18 25 24 24 25 28 30 29 27 31 29 36 34 37 34 35 37 30 32
7 8 11 15 17 17 16 16 14 12 13 15 17 17 17 18 19 17 16 16 15 17 18 21 23 23 25 28 26 28 30 32 33 34 36 38 38 37 33 31 31 36 37 37
3 4 6 8 13 16 14 13 12 13 13 12 13 14 15 18 18 19 23 24 24 24 24 25 26 26 27 29 29 31 34 33 33 37 38 38 35 31 32 34 35 37 39 38
4 2 3 4 5 7 10 14 16 15 16 17 17 19 20 22 23 26 28 29 29 29 30 30 29 29 30 33 36 38 37 37 37 38 39 36 34 35 36 37 38 40 40 40
9 8 9 9 9 11 14 15 14 18 20 22 24 26 29 30 28 23 25 29 32 32 33 34 31 33 34 34 33 34 35 34 34 35 37 37 37 39 38 38 39 39 38 38
18 16 13 16 18 19 18 17 20 21 21 21 26 29 29 28 28 27 28 30 32 32 33 31 32 35 36 36 37 39 39 37 38 39 38 39 40 39 38 39 40 38 35 36

GFSNGP_500_spd_024.txt.gz
Wind_Speed
71 65 55 56 56 55 56 53 55 42 44 33 27 46 47 39 34 31 28 48 44 45 29 30 25 28 23 26 23 21 20 16 13 15 16 16 17 18 17 15 14 14 11 11
78 73 66 57 60 59 56 53 53 50 45 36 34 41 52 44 42 29 36 36 51 33 27 31 28 30 23 22 24 23 21 21 20 20 18 15 18 19 19 19 17 18 16 14
77 73 66 52 67 65 61 57 54 55 43 36 38 35 53 59 48 37 31 37 32 34 32 32 34 35 31 28 26 28 29 24 26 25 22 21 20 22 20 23 25 24 21 17
76 72 65 71 61 65 61 56 54 54 36 37 39 37 40 52 52 45 36 44 43 38 36 38 41 38 39 41 38 31 28 28 29 30 28 25 24 23 23 24 22 20 20 18
73 67 65 67 65 57 67 60 48 53 53 44 37 34 36 50 58 52 47 43 40 41 42 38 45 39 42 44 38 32 30 31 28 30 32 30 25 25 26 28 28 24 22 21
54 67 62 68 62 59 53 64 56 53 53 50 40 36 41 41 55 62 58 55 46 49 42 41 41 48 46 44 43 42 34 29 31 31 35 34 31 28 32 33 34 30 27 26
56 58 68 67 66 57 52 55 59 57 53 49 44 39 38 37 46 56 62 62 59 56 54 49 48 57 43 41 43 42 37 36 38 36 37 36 37 34 36 39 39 37 37 32
64 49 55 68 65 55 56 52 56 55 56 50 45 42 41 37 37 52 60 63 62 57 51 49 51 55 53 53 49 40 43 43 42 38 41 44 43 40 38 42 44 44 48 47
56 45 55 62 42 41 53 55 54 59 58 53 51 47 47 46 42 39 47 58 66 67 64 58 55 58 59 63 55 51 52 46 46 43 41 44 45 45 41 41 42 45 52 37
52 38 56 69 70 40 57 60 56 59 62 60 56 55 54 52 44 43 45 47 51 53 54 60 66 71 68 63 60 53 52 49 43 38 41 40 43 48 45 44 42 46 52 31
53 38 59 65 58 67 60 63 65 65 59 59 54 55 54 52 52 49 47 50 47 49 51 56 62 63 65 64 66 68 61 54 55 57 52 51 49 52 49 50 51 44 41 39
53 47 54 62 65 59 56 59 67 69 65 60 54 52 50 56 49 47 45 42 43 48 52 54 52 64 61 59 57 64 65 64 56 56 51 54 56 63 62 59 39 27 40 43
55 45 49 46 48 50 55 59 57 55 55 57 53 54 52 51 48 48 45 45 49 51 50 47 57 59 54 53 51 53 57 61 65 69 62 59 59 62 46 25 30 38 44 49
35 37 53 48 46 42 55 54 55 56 62 58 52 50 47 44 44 43 43 45 45 42 42 47 57 50 27 43 43 40 54 50 50 40 38 47 55 57 48 27 36 42 46 48
35 30 45 44 50 28 34 58 57 53 51 56 51 49 53 50 48 48 48 44 36 33 36 36 37 30 21 38 36 36 31 26 43 50 46 46 57 62 52 30 40 49 46 52
45 37 42 41 43 42 44 32 40 43 45 55 52 37 40 43 35 34 33 34 29 24 25 22 29 14 12 19 30 35 32 29 35 43 46 50 60 59 47 47 44 46 50 47
32 30 34 33 40 46 50 45 33 43 37 34 47 42 37 37 36 36 32 36 31 29 26 27 30 22 20 20 25 30 32 33 37 42 45 47 49 45 43 46 47 53 50 44
40 46 46 43 36 33 40 34 29 25 29 31 39 34 36 37 34 32 32 33 36 33 33 32 29 26 25 25 28 31 34 35 39 42 44 40 39 46 53 46 51 52 47 51
20 21 18 17 22 28 22 18 18 19 27 38 33 34 30 27 28 28 29 33 31 34 35 34 33 32 32 32 31 31 36 39 39 40 43 46 43 43 44 46 52 52 55 36
14 18 13 12 17 12 11 15 15 20 17 23 26 28 28 22 24 27 24 25 30 30 35 31 35 39 35 33 33 36 39 40 43 44 48 50 48 47 42 46 43 35 29 32
5 6 11 13 19 17 10 10 12 12 9 11 22 28 22 24 26 24 33 30 28 31 35 37 37 36 38 41 45 48 40 45 48 52 54 55 54 43 42 36 34 33 31 31
3 5 5 6 9 5 5 8 9 10 7 9 10 14 18 22 23 23 28 40 43 43 40 42 45 42 44 43 47 47 47 43 47 47 56 58 46 32 28 31 34 34 34 34
6 3 2 4 4 6 11 9 9 10 11 12 13 14 15 19 21 23 24 24 26 27 27 28 27 25 36 43 35 34 28 28 28 28 26 25 30 30 32 32 36 39 39 39
7 3 3 6 8 12 14 13 12 12 13 15 16 14 16 17 16 15 16 19 20 19 20 21 20 19 21 22 22 22 23 24 26 27 28 30 35 36 35 36 39 43 42 39
9 9 8 4 3 7 12 13 15 17 18 20 22 22 20 20 17 19 20 22 24 26 23 23 24 25 26 28 29 28 29 29 28 31 33 34 33 34 36 36 36 36 34 36
8 10 11 10 10 10 12 14 16 17 17 19 20 21 24 25 25 25 26 26 30 32 34 29 28 29 30 32 33 34 33 34 32 32 33 35 35 35 35 35 35 35 37 38
10 14 16 17 18 20 20 21 20 21 21 22 25 26 25 25 26 28 28 29 30 32 33 35 35 35 35 35 36 34 35 35 36 35 35 37 38 37 37 39 38 39 40 40

GFSNGP_500_spd_030.txt.gz
Wind_Speed
69 65 63 61 61 60 59 55 53 42 39 30 25 25 26 28 30 38 40 41 39 38 35 36 34 33 29 27 26 23 19 19 13 10 10 11 13 13 15 22 26 27 25 25
73 71 67 65 62 62 61 59 58 48 47 39 31 28 31 32 34 32 31 37 40 38 37 37 34 33 28 27 31 27 22 18 19 15 13 11 13 15 16 17 23 27 25 25
79 76 74 72 64 64 65 63 58 53 46 41 35 33 35 38 38 36 33 31 34 41 42 41 36 38 33 30 32 39 27 24 21 20 21 17 17 19 18 20 23 24 26 27
85 80 80 76 68 67 68 64 61 57 49 47 44 38 38 39 41 43 39 36 36 37 41 43 39 39 37 34 26 15 29 31 27 24 25 23 24 23 24 24 24 25 25 27
92 88 84 81 79 72 69 67 64 64 57 51 49 46 42 42 43 43 45 41 40 37 41 42 38 37 36 36 24 19 25 31 33 31 30 27 25 26 28 29 27 27 30 29
95 94 91 87 81 77 74 71 67 66 61 55 55 54 47 42 42 44 41 45 45 40 37 44 44 43 43 38 32 30 26 36 37 37 35 35 33 34 33 32 32 32 33 32
95 98 97 92 87 83 80 72 67 65 62 59 57 54 50 45 41 40 39 43 45 42 38 43 49 49 44 42 44 29 33 39 38 41 42 40 41 34 34 34 37 38 40 40
99 99 104 94 90 87 84 77 71 69 62 59 58 51 45 48 43 38 40 40 41 41 44 45 45 45 44 43 35 34 36 40 41 45 40 44 49 39 42 37 40 41 42 48
96 109 97 93 88 84 84 82 77 71 65 58 55 52 42 42 43 36 35 39 39 41 43 47 47 48 46 43 40 43 43 39 44 42 41 45 43 48 54 55 39 46 49 46
80 97 101 99 85 80 79 72 74 66 68 63 57 51 51 44 43 37 38 36 38 41 43 44 54 50 51 52 51 50 53 48 51 46 47 47 49 60 60 53 48 51 47 37
58 75 89 94 91 71 65 57 45 37 44 57 57 54 51 45 47 45 43 43 37 39 40 40 38 42 52 57 57 54 54 53 56 58 57 54 56 66 47 59 57 53 56 50
41 46 63 70 67 79 46 41 42 40 40 40 43 47 45 48 48 52 51 48 42 41 45 46 46 46 44 46 47 47 47 49 55 62 60 59 65 66 62 66 67 62 63 64
45 46 41 53 53 47 73 49 46 45 47 43 43 49 46 46 46 44 44 48 50 46 45 48 50 49 48 49 54 52 55 53 53 59 64 62 65 69 71 70 71 67 69 70
44 49 51 47 51 50 51 55 51 52 49 46 47 46 48 52 53 53 53 51 52 54 54 55 53 54 56 56 52 51 47 49 49 49 53 59 64 66 70 73 76 74 76 74
48 47 35 32 60 56 52 56 52 56 63 55 54 52 52 51 53 53 54 57 53 51 53 52 57 57 57 52 50 48 47 47 49 54 56 60 61 70 78 77 77 79 75 74
40 39 29 34 58 60 51 54 59 54 66 67 64 58 55 56 54 49 41 54 59 57 58 60 55 58 54 51 47 47 45 45 48 48 49 53 61 63 73 86 86 77 71 72
37 39 38 38 43 55 52 42 59 34 35 22 37 45 50 56 44 41 47 56 58 61 61 59 53 54 56 45 43 44 44 42 36 33 29 27 22 41 26 44 48 67 51 13
17 34 42 36 45 39 38 48 23 35 49 37 27 33 37 42 44 48 48 52 53 48 52 46 48 44 40 41 42 41 41 34 28 24 19 4 6 13 9 7 8 13 5 8
24 12 15 12 16 34 33 36 34 18 26 33 32 34 38 42 44 43 42 40 39 46 49 52 48 39 38 42 41 36 31 25 20 20 13 11 7 11 14 14 10 10 15 17
8 6 9 9 6 18 21 19 18 24 28 33 35 36 40 42 42 44 33 35 40 44 38 35 39 38 37 38 37 33 29 18 20 20 18 17 16 16 15 17 21 24 17 20
29 14 8 5 9 12 20 25 26 26 24 27 28 27 30 29 32 32 32 35 36 33 33 32 32 33 33 33 31 29 26 24 20 24 29 21 25 22 24 33 30 25 25 26
27 23 13 11 11 12 11 18 23 25 23 19 14 19 22 22 27 31 38 38 35 38 35 31 29 31 32 33 30 30 29 30 26 28 31 34 33 32 31 35 31 30 33 31
19 17 18 18 16 11 11 13 15 17 19 19 16 14 23 21 24 30 32 34 32 32 28 28 30 30 33 34 31 33 34 34 35 32 35 39 40 41 43 43 40 37 38 31
15 11 10 11 12 10 10 11 13 13 15 16 14 16 22 22 23 21 20 21 24 27 27 24 24 26 25 25 28 31 32 32 29 30 30 31 34 36 40 35 30 30 31 30
10 10 8 8 7 5 2 6 10 13 14 13 14 18 19 19 19 20 20 21 23 23 23 24 24 24 23 24 22 23 26 29 27 27 27 29 30 28 33 34 33 31 30 30
10 9 9 10 11 11 11 12 12 12 13 15 17 18 20 20 21 23 25 26 26 27 27 26 27 27 26 25 24 26 27 30 31 31 32 33 34 34 34 35 36 39 38 37
13 14 14 14 15 16 18 20 21 21 21 22 23 23 24 25 26 26 27 27 27 29 30 29 30 32 32 32 32 31 29 29 30 31 32 34 38 39 39 40 42 45 45 45

GFSNGP_500_spd_033.txt.gz
Wind_Speed
65 65 64 62 59 58 56 50 49 37 34 30 27 26 24 26 36 38 41 41 42 37 37 36 35 32 29 30 28 26 20 22 16 13 15 14 10 11 13 13 16 26 28 27
71 70 68 66 64 62 58 54 53 44 39 33 29 31 29 31 37 41 43 44 45 46 42 41 40 37 32 31 32 26 26 23 21 19 19 17 11 11 10 11 12 16 24 27
75 73 72 71 64 63 60 57 55 50 43 38 33 32 31 32 34 33 36 40 45 46 46 44 42 41 37 34 30 30 26 27 31 26 22 21 19 18 14 14 13 13 18 22
79 77 77 71 69 69 66 62 59 53 47 43 38 36 35 37 38 38 36 34 34 33 36 40 38 37 35 33 32 31 30 29 31 36 25 24 26 24 22 20 21 19 17 19
83 81 79 78 73 71 69 65 63 59 54 49 45 42 37 42 42 43 42 38 36 35 34 33 35 37 33 36 37 34 29 31 26 29 28 32 29 26 25 26 26 26 25 23
88 86 86 78 75 74 72 68 64 62 56 52 49 46 40 39 43 43 43 44 40 38 37 33 31 33 34 36 40 34 29 24 23 32 38 35 33 35 31 31 30 30 32 32
91 91 90 85 80 77 75 69 67 65 61 58 54 50 44 40 42 44 45 45 44 40 36 33 33 34 33 35 35 34 38 35 31 27 35 41 44 43 42 44 48 37 43 32
97 97 95 88 83 82 77 71 67 65 60 61 59 52 48 48 44 44 45 44 45 43 39 35 35 35 37 37 41 42 42 43 43 34 33 39 39 46 55 51 50 36 37 42
96 101 94 94 91 83 82 78 74 70 62 59 57 53 48 46 50 45 40 45 46 44 39 36 34 36 36 36 39 41 43 43 40 38 39 41 44 53 60 50 41 44 42 46
83 96 97 97 93 92 89 83 77 75 71 66 58 52 51 49 46 44 47 41 39 39 39 39 37 34 37 39 41 42 43 43 44 42 41 43 49 53 52 62 40 49 54 51
62 79 85 95 96 95 91 86 83 76 72 65 62 59 54 48 50 44 44 45 42 39 36 35 38 40 36 40 44 44 46 47 48 46 48 50 54 52 52 49 48 52 58 62
31 50 74 77 82 94 92 88 81 77 77 67 55 53 60 58 53 50 43 41 43 43 42 39 39 39 40 39 39 43 50 52 52 54 55 57 59 61 61 61 58 57 61 66
15 30 55 62 72 75 85 84 79 78 71 57 51 43 43 41 42 44 45 46 45 43 43 34 32 42 44 43 43 42 42 43 46 50 50 53 55 54 55 56 57 62 67 70
25 26 48 52 52 57 57 57 63 61 51 57 44 42 41 40 40 42 41 42 46 47 47 43 39 40 42 45 46 46 47 47 50 52 51 53 55 55 54 55 54 57 60 65
28 24 45 49 43 37 44 43 42 46 42 42 45 46 44 43 42 42 45 48 49 48 45 43 43 45 46 47 49 48 48 50 51 55 54 50 49 53 56 57 58 63 68 73
28 40 42 40 37 37 44 58 53 54 48 45 49 49 46 43 47 49 51 52 50 49 49 47 48 48 50 53 53 51 52 54 55 55 54 54 49 49 52 55 57 63 63 60
35 39 30 20 30 39 46 60 59 59 52 50 49 49 48 48 57 57 59 58 57 56 53 50 38 39 46 49 53 55 56 53 52 50 46 47 46 50 51 49 50 46 56 43
11 9 19 21 30 22 42 36 49 59 64 58 52 48 54 54 57 60 64 44 57 60 49 44 46 49 53 53 49 46 41 40 40 40 42 40 37 40 42 39 34 20 30 38
15 16 8 16 18 33 53 41 36 52 53 57 57 55 55 60 59 44 34 40 49 47 50 53 48 47 51 49 42 36 36 34 36 40 37 32 33 31 31 31 26 20 16 6
15 19 2 8 21 19 30 46 44 36 38 43 53 48 57 31 30 29 30 36 42 47 50 45 44 42 39 36 37 42 40 37 40 39 35 33 34 29 27 24 18 13 16 11
28 26 20 22 16 21 21 12 16 27 25 26 29 27 28 27 27 29 33 36 40 45 45 42 37 39 36 32 34 36 39 42 42 37 37 38 38 33 27 26 25 22 19 22
29 25 24 20 25 18 13 9 11 12 14 13 18 22 26 31 31 33 37 36 39 40 39 40 36 30 29 28 29 34 38 37 31 33 35 36 35 36 30 30 31 28 23 26
27 23 15 12 15 20 22 22 23 22 20 21 23 22 24 25 28 29 29 32 34 35 35 37 35 33 31 32 35 33 36 35 33 34 36 38 40 35 33 34 33 32 32 34
7 7 5 5 6 6 5 5 6 7 10 16 20 22 23 25 23 25 26 23 23 24 25 29 29 28 29 30 32 32 35 36 36 35 39 39 40 39 38 40 41 38 39 39
12 14 14 13 12 11 8 5 7 9 11 13 16 17 20 22 23 23 22 22 21 16 16 19 22 20 22 24 27 29 32 33 33 33 34 34 33 34 37 37 36 38 41 42
9 9 10 10 11 11 10 10 12 12 12 12 14 15 16 17 18 19 19 20 20 19 20 23 24 24 23 23 25 26 26 28 30 32 30 29 31 33 33 33 35 36 37 39
18 17 15 14 16 18 17 17 18 20 20 20 19 20 20 21 23 23 23 24 24 24 27 28 28 28 30 29 29 31 32 33 34 34 34 34 35 36 37 37 38 39 39 40

GFSNGP_500_spd_036.txt.gz
Wind_Speed
63 64 61 59 58 55 56 47 46 39 35 33 25 24 27 38 43 45 46 46 40 39 40 40 37 33 30 26 26 26 24 23 17 16 18 19 12 11 11 10 11 14 17 22
67 64 64 64 61 60 58 50 48 42 38 36 33 28 30 31 37 42 47 48 46 41 41 44 42 39 36 32 29 30 26 22 21 19 20 20 18 14 13 10 9 11 13 12
69 66 66 68 64 59 60 55 52 46 43 36 34 28 28 27 32 37 48 46 44 44 43 43 44 44 40 35 36 32 29 26 23 17 22 24 23 20 19 14 14 11 12 14
74 75 73 67 65 65 62 56 53 50 48 42 42 37 34 35 34 36 40 46 44 42 44 45 46 46 41 40 39 37 32 27 25 21 19 25 29 25 24 22 20 19 17 17
77 78 70 74 72 70 68 65 61 57 55 49 46 41 37 35 33 36 39 41 40 43 41 37 36 38 42 44 39 44 37 31 24 25 26 26 25 24 28 27 25 26 28 26
80 79 79 72 75 76 74 69 64 62 57 53 48 45 40 37 35 40 42 43 41 39 38 36 33 30 32 38 36 35 33 33 31 31 33 35 33 34 37 35 33 31 33 33
83 84 82 83 82 80 74 67 68 64 61 58 54 51 46 40 39 37 39 42 44 42 38 36 34 33 30 31 29 31 35 36 38 35 33 34 36 39 44 45 43 38 38 40
86 87 88 84 84 83 74 76 73 69 66 63 57 56 52 45 44 41 39 40 44 44 42 39 37 36 35 33 32 32 34 38 39 38 38 37 36 36 38 41 43 42 50 49
92 93 87 89 88 84 81 81 73 70 67 66 62 59 55 50 46 43 42 39 39 42 41 41 38 37 35 35 35 34 35 36 38 38 39 40 38 39 38 41 46 48 50 49
91 94 93 92 88 85 84 78 78 73 67 63 60 57 56 51 48 46 44 39 41 38 38 39 38 35 34 34 35 35 36 38 40 41 41 40 39 39 38 41 46 48 50 48
67 84 91 94 92 90 85 85 81 75 71 68 63 60 54 52 49 48 44 43 38 35 35 35 34 33 37 39 39 39 40 40 41 41 42 43 45 45 48 45 45 47 49 53
50 62 80 90 95 92 90 87 82 79 75 68 67 65 60 54 50 46 44 44 43 41 37 33 33 32 32 32 34 38 40 40 41 42 45 46 46 47 48 50 53 54 56 60
23 32 58 71 83 90 90 86 82 80 76 71 70 68 61 56 49 48 49 51 48 44 40 37 33 32 36 33 34 37 39 40 41 44 47 50 52 52 54 54 54 56 59 61
24 32 44 57 68 82 89 83 81 78 74 71 71 70 64 59 54 57 53 49 49 50 52 46 42 39 39 37 38 38 41 44 44 43 44 47 50 52 55 57 57 58 54 54
31 24 27 41 61 73 71 79 81 74 71 68 68 68 64 60 57 52 43 44 43 42 44 44 44 44 44 43 42 45 46 44 45 46 50 52 54 55 57 58 58 57 54 56
21 29 28 18 42 60 58 56 57 65 68 60 39 53 56 58 57 52 51 42 46 45 46 48 51 51 49 48 48 49 48 49 51 51 53 55 56 54 58 62 60 58 55 57
7 17 26 25 25 36 41 38 30 24 33 33 39 56 52 47 49 49 45 47 48 47 49 53 53 51 50 51 53 51 53 54 55 52 52 53 57 60 62 60 53 54 56 57
17 36 30 29 35 50 49 30 34 41 42 48 58 50 48 52 51 50 51 50 50 52 55 58 57 57 57 57 56 56 47 48 52 53 54 53 58 55 46 47 51 52 50 49
23 14 20 29 46 41 33 35 44 52 58 54 42 49 60 61 57 52 51 52 51 54 57 58 60 61 61 63 52 44 45 47 52 54 54 49 45 45 44 41 43 42 43 44
27 24 24 32 35 25 32 36 36 26 31 35 26 35 36 49 55 47 45 55 49 57 64 66 66 71 65 56 50 50 52 49 46 44 45 46 43 41 40 38 39 41 41 35
32 25 25 26 24 20 20 31 23 23 26 25 50 40 28 34 42 46 44 40 54 58 56 44 49 38 34 38 44 50 49 53 49 45 46 44 43 43 41 41 43 44 43 38
27 29 31 27 23 25 28 25 32 26 23 23 39 40 30 44 52 48 47 46 47 41 41 38 37 37 39 40 43 45 45 42 42 42 40 40 41 41 43 44 43 44 43 39
15 13 15 18 23 28 27 25 25 25 20 19 19 20 18 32 43 46 48 39 34 37 34 36 38 39 41 43 46 46 41 38 38 38 39 39 40 41 42 44 44 46 46 40
11 10 8 7 5 6 10 14 17 17 15 17 17 18 17 20 21 24 27 25 25 27 30 33 32 33 36 36 37 39 39 39 38 41 41 38 38 40 41 41 46 49 47 41
10 14 18 17 15 15 14 10 8 5 6 6 9 12 14 21 22 24 22 23 26 24 23 25 29 31 31 34 35 34 36 37 38 38 37 38 40 43 43 44 44 42 42 44
12 10 8 9 10 10 9 9 10 11 12 13 13 12 11 11 12 15 17 20 22 25 25 25 26 27 28 30 30 32 35 33 35 35 35 38 37 36 36 35 37 40 43 45
22 22 21 19 18 18 18 18 18 18 17 16 16 17 17 17 17 18 19 20 21 22 22 23 24 26 27 28 29 31 32 33 32 32 35 37 37 38 39 39 40 42 41 42